15:21
Airports
History
Links
Donate
Help keep this website running!
PayPal
Bitcoin
This page is community maintained. The information is intended for PC simulator navigation or reference.
Always use approved charts for navigation.
UHMA
UGOLNY
UGOLNY (UHMA)
Anadyr, Chukotka Autonomous Okrug, Russian Federation (689501)
(C)
Lat/Lng:64° 44' 5.82" N / 177° 44' 29.34" E
64.73495 / 177.741484
Elevation:194'ft / 59mMSL
ID / ICAO:UHMA
Runways:1
Longest:01-19
Concrete 3,476m / 11,405ft
Controlled:Yes
METAR15:00 GMT 2017-11-20
Altimeter: 29.65
Visibility: 6.2 statute miles
Wind: 25.3 knots (from 110°)
Temp: 1°c / 34°f
Humidity: %

METAR: UHMA 201500Z 11013G18MPS 9999 BKN009 OVC080 01/00 Q1004 RMK END R01/12014G18MPS QFE749/0999

(Powered by phpweather)
Airport Radio Frequencies
Tower: 124
Approach: 124
Nearby VORs <50NM
Nearby NDBs
Runway 01 / 19
Dimensions:3476.2 x 60.1m 11405' x 197'ft
Surface:Concrete
Edge Lights:Low intensity
Runway 01 [A]Runway 19 [B]
Heading:014°TH 194°TH
Lat:
Lng:
64° 43' 11.23"N
177° 43' 55.89"E
64° 45' 0.41"N
177° 45' 2.79"E
ALS:ALSF-IICalvert
TDZ:Yes
User Notes and Comments
64° 44' 5.82" N / 177° 44' 29.34" E
Distance To
Airport ID:
Nearby Airports
(C) Provideniya Bay 268.7 NM
UHMD E 95°
(U) Gambell 322.5 NM
PAGM ( WX ) E 101°
4 Savoonga 360.4 NM
PASA ( WX ) E 101°
(U) PEVEK 397.0 NM
UHMP NNW 331°
(U) Ust Pakhachi 397.0 NM
UHPA SW 223°
4 Wales 414.4 NM
PAIW E 81°
(R) Tin City Lrrs 419.2 NM
PATC ( WX ) E 82°
VFR Chart
Flight Planning at SkyVector.com